This is the latest recevied weather packets stored in our database for station/object KD9DOE. If no packets are shown the sender has not sent any weather packets the latest 10 day(s).
| Time | Temp. | Humidity | Pressure | Rain* | Wind** | Luminosity | Snow |
|---|---|---|---|---|---|---|---|
| 1777684614 | 6.11° C | 54% | 1018 hPa | 0 mm | - | 0 W/m² | - |
| 1777684310 | 6.11° C | 52% | 1018.1 hPa | 0 mm | - | 0 W/m² | - |
| 1777684008 | 6.11° C | 51% | 1017.9 hPa | 0 mm | - | 1 W/m² | - |
| 1777683704 | 6.67° C | 52% | 1018.1 hPa | 0 mm | - | 2 W/m² | - |
| 1777683401 | 6.67° C | 51% | 1017.9 hPa | 0 mm | - | 3 W/m² | - |
| 1777683099 | 6.67° C | 51% | 1017.9 hPa | 0 mm | - | 4 W/m² | - |
| 1777682795 | 7.22° C | 51% | 1018 hPa | 0 mm | - | 6 W/m² | - |
| 1777682491 | 7.22° C | 51% | 1017.8 hPa | 0 mm | - | 7 W/m² | - |
| 1777682190 | 7.78° C | 48% | 1018 hPa | 0 mm | - | 10 W/m² | - |
| 1777681886 | 7.78° C | 48% | 1017.8 hPa | 0 mm | - | 14 W/m² | - |
| 1777681582 | 7.78° C | 49% | 1017.7 hPa | 0 mm | - | 15 W/m² | - |
| 1777681280 | 7.78° C | 47% | 1017.6 hPa | 0 mm | - | 18 W/m² | - |
| 1777680978 | 7.78° C | 46% | 1017.5 hPa | 0 mm | - | 23 W/m² | - |
| 1777680675 | 7.78° C | 47% | 1017.5 hPa | 0 mm | - | 24 W/m² | - |
| 1777680373 | 8.33° C | 49% | 1017.7 hPa | 0 mm | - | 26 W/m² | - |
| 1777680070 | 8.33° C | 45% | 1017.5 hPa | 0 mm | - | 28 W/m² | - |
| 1777679765 | 8.33° C | 48% | 1017.4 hPa | 0 mm | - | 30 W/m² | - |
| 1777679462 | 8.33° C | 46% | 1017.3 hPa | 0 mm | - | 28 W/m² | - |
| 1777679157 | 8.33° C | 45% | 1017.3 hPa | 0 mm | - | 31 W/m² | - |
| 1777678855 | 8.33° C | 44% | 1017.3 hPa | 0 mm | - | 34 W/m² | - |
| 1777678553 | 8.89° C | 46% | 1017.4 hPa | 0 mm | - | 42 W/m² | - |
| 1777678250 | 8.89° C | 46% | 1017.4 hPa | 0 mm | - | 57 W/m² | - |
| 1777677946 | 8.89° C | 43% | 1017.4 hPa | 0 mm | - | 40 W/m² | - |
| 1777677643 | 9.44° C | 42% | 1017.1 hPa | 0 mm | - | 51 W/m² | - |
| 1777677341 | 9.44° C | 41% | 1017.4 hPa | 0 mm | - | 57 W/m² | - |
* Rain latest hour (hover to see other rain measurements)
** Current wind speed in m/s (hover to see current wind gust speed)